loading
DOY 175 | 2024-06-23T18:25:28Z

THOR ABLESTAR DEB, 132

Orbit data source: Space-Track

THOR ABLESTAR DEB, 132 is space debris in LEO originally from a launch on Thu, 29 Jun 1961 UTC launched from the Air Force Eastern Test Range (AFETR). Debris objects in space refer to the collection of defunct objects orbiting the Earth. Examples of debris include non-operational satellites, rocket bodies, and fragments generated from explosions, collisions, or faulty payload assembly.

Loading next visibility...
Loading greatness...
THOR ABLESTAR DEB details
NORAD ID132
COSPAR ID
1961-015S
Orbit
LEO
Last TLE update23 hours ago
Origin
Flag of USUSN BuWeps (US)
ManufacturerUnknown
BusUnknown
MotorUnknown
MassWet unknown, Dry mass unknown
Launch date (UTC)
1961-06-29 (63 years ago)
Launch vehicleUnknown
Launch site
Air Force Eastern Test Range (AFETR)
Object type
Payload
Rocket body
Debris
Radar Cross SectionMedium (>0.1 m² and <1 m²)
Predictive object data (real-time)
Latitude39.59705°
Longitude-83.33187°
Altitude975.648 km
Speed7.339 km/s
Apparent Right ascension11h 53m 44s
Apparent Declination10° 13' 19"
Sunlit
Object is in daylight
Predictive observer data (real-time)
Local Sidereal Time05:34:39
Azimuth79.113° E
Elevation2.929°
Doppler factor1
Orbital elements
Apogee969.331 km
Perigee852.927 km
Semi-major axis7,289.266 km
Eccentricity0.0079846
Inclination66.6612°
RAAN322.2291°
Arg. of periapsis314.5636°
True anomaly45.54457°
Mean anomaly44.8942°
Mean motion3.48753 °/min
BSTAR0.000058232
Period103.23 mins
Definitive object data (Epoch: 2024-06-22T19:23:42.69Z)
Latitude-0.00002°
Longitude119.83506°
Altitude873.781 km
Speed7.437 km/s
True Right ascension21h 28m 54s
True Declination0° 00' 00"
Sunlit
Object was in full shadow at TLE epoch
TLE from 23 hours ago
0 THOR ABLESTAR DEB
1 00132U 61015S   24174.80813299  .00000001  00000-0  58232-4 0  9992
2 00132  66.6612 322.2291 0079846 314.5636  44.8942 13.94551864202650
Epoch: 2024-06-22T19:23Z
No data available

THOR ABLESTAR DEB Visibility forecast

Observer location: 39.9160978°, -105.1181434, 0m alt.

THOR ABLESTAR DEB is not visible in the next 10 days
Span
Click to sort rows by Start time (UTC) header in descending order
Start Az.
Max El. time (UTC)
Max El. Az.
Max El.
End time (UTC)
End Az.